Weather History for Al Udeid, Qatar

Change the Weather History Date:

Monday, March 24, 2014

  Actual Average Record
Temperature  
Mean Temperature 69 °F -  
Max Temperature 83 °F - - ()
Min Temperature 55 °F - - ()
Cooling Degree Days 4    
Growing Degree Days 19 (Base 50)    
Moisture  
Dew Point 45 °F    
Average Humidity 46    
Maximum Humidity 81    
Minimum Humidity 10    
Precipitation  
Precipitation 0.00 in - - ()
Sea Level Pressure  
Sea Level Pressure 29.92 in    
Wind  
Wind Speed 5 mph ()    
Max Wind Speed 15 mph    
Max Gust Speed -    
Visibility 6.2 miles    
Events      
T = Trace of Precipitation, MM = Missing Value Source: Averaged Metar Reports

Daily Weather History Graph

Daily Weather History Graph

Search for Another Location

Airport:

Trip Planner

Search our weather history database for the weather conditions in past years. The results will help you decide how hot, cold, wet, or windy it might be!

Date:

Astronomy

Mar. 24, 2014 Rise Set
Actual Time 5:34 AM AST 5:47 PM AST
Civil Twilight 5:12 AM AST 6:10 PM AST
Nautical Twilight 4:45 AM AST 6:37 PM AST
Astronomical Twilight 4:18 AM AST 7:03 PM AST
Moon 12:09 AM AST (3/24) 11:21 AM AST (3/24)
Length of Visible Light 12h 58m
Length of Day
12h 12m
Waning Gibbous, 47% of the Moon is Illuminated
Mar 24
Waning Gibbous
Mar 30
New
Apr 7
First Quarter
Apr 15
Full
Apr 22
Last Quarter

Hourly Weather History & Observations

Time (AST) Temp. Dew Point Humidity Pressure Visibility Wind Dir Wind Speed Gust Speed Precip Events Conditions
12:55 AM 62.2 °F 45.1 °F 54% 29.90 in 6.2 mi NW 3.5 mph - N/A   Clear
1:55 AM 58.8 °F 44.8 °F 60% 29.90 in 6.2 mi Calm Calm - N/A   Clear
2:55 AM 59.4 °F 44.1 °F 57% 29.91 in 6.2 mi Calm Calm - N/A   Clear
3:55 AM 57.7 °F 42.8 °F 57% 29.91 in 6.2 mi Calm Calm - N/A   Clear
4:55 AM 55.9 °F 42.1 °F 60% 29.94 in 6.2 mi West 9.2 mph - N/A   Clear
5:55 AM 56.8 °F 43.3 °F 61% 29.94 in 6.2 mi NNW 5.8 mph - N/A   Clear
6:55 AM 61.2 °F 49.1 °F 65% 29.95 in 6.2 mi West 3.5 mph - N/A   Clear
7:55 AM 68.2 °F 52.3 °F 57% 29.97 in 6.2 mi NW 5.8 mph - N/A   Scattered Clouds
8:55 AM 75.2 °F 44.2 °F 33% 29.97 in 6.2 mi NNW 5.8 mph - N/A   Clear
9:55 AM 79.2 °F 32.4 °F 18% 29.98 in 6.2 mi NNE 3.5 mph - N/A   Clear
10:55 AM 81.0 °F 30.2 °F 16% 29.96 in 6.2 mi NE 8.1 mph - N/A   Clear
11:55 AM 81.7 °F 31.8 °F 16% 29.94 in 6.2 mi Calm Calm - N/A   Clear
12:59 PM 83.5 °F 22.5 °F 11% 29.91 in 6.2 mi East 10.4 mph - N/A   Clear
1:55 PM 83.7 °F 22.1 °F 10% 29.88 in 6.2 mi NE 8.1 mph - N/A   Clear
2:55 PM 82.6 °F 30.2 °F 15% 29.87 in 6.2 mi East 13.8 mph - N/A   Clear
3:55 PM 81.0 °F 31.8 °F 17% 29.88 in 6.2 mi East 15.0 mph - N/A   Clear
4:55 PM 78.8 °F 42.8 °F 28% 29.89 in 6.2 mi East 12.7 mph - N/A   Clear
5:55 PM 71.6 °F 51.3 °F 49% 29.90 in 6.2 mi ENE 12.7 mph - N/A   Partly Cloudy
6:55 PM 73.2 °F 58.8 °F 61% 29.92 in 6.2 mi East 8.1 mph - N/A   Clear
7:55 PM 72.5 °F 60.4 °F 66% 29.93 in 6.2 mi NE 5.8 mph - N/A   Clear
8:55 PM 71.8 °F 61.3 °F 70% 29.94 in 6.2 mi NE 4.6 mph - N/A   Mostly Cloudy
9:55 PM 70.7 °F 62.6 °F 75% 29.92 in 6.2 mi NNE 4.6 mph - N/A   Scattered Clouds
10:55 PM 69.8 °F 62.4 °F 77% 29.90 in 6.2 mi ENE 3.5 mph - N/A   Partly Cloudy
11:58 PM 68.9 °F 63.0 °F 81% 29.88 in 6.2 mi North 4.6 mph - N/A   Clear